Ely, NV

1:06 AM PDT on September 25, 2016 (GMT -0700)
Ely

Weather History for KELY - June, 2014

Change the Weather History Date:

Sunday, June 8, 2014

  Actual Average Record
Temperature  
Mean Temperature 60 °F 57 °F  
Max Temperature 80 °F 76 °F 92 °F (1902)
Min Temperature 39 °F 39 °F 19 °F (1950)
Degree Days  
Heating Degree Days 5 8  
Month to date heating degree days 47 73  
Since 1 June heating degree days 47 73  
Since 1 July heating degree days 6923 7420  
Cooling Degree Days 0 0  
Month to date cooling degree days 0 0  
Year to date cooling degree days 2 1  
Since 1 June cooling degree days 0 0  
Growing Degree Days 9 (Base 50)    
Moisture  
Dew Point 23 °F    
Average Humidity 33    
Maximum Humidity 55    
Minimum Humidity 10    
Precipitation  
Precipitation 0.00 in 0.03 in 0.42 in (1968)
Month to date precipitation 0.00 0.26  
Year to date precipitation 4.17 4.69  
Snow  
Snow 0.00 in 0.00 in 0.20 in (1995)
Month to date snowfall 0.0 0.1  
Since 1 June snowfall 0.0 0.1  
Since 1 July snowfall 51.8 50.8  
Snow Depth 0.00 in    
Sea Level Pressure  
Sea Level Pressure 29.88 in    
Wind  
Wind Speed 10 mph (North)    
Max Wind Speed 20 mph    
Max Gust Speed 28 mph    
Visibility 10 miles    
Events      
T = Trace of Precipitation, MM = Missing Value Source: NWS Daily Summary

Daily Weather History Graph

Daily Weather History Graph

Search for Another Location

Airport or City:

Trip Planner

Search our weather history database for the weather conditions in past years. The results will help you decide how hot, cold, wet, or windy it might be!

Date:

Astronomy

Jun. 08, 2014 Rise Set
Actual Time 5:12 AM PDT 8:04 PM PDT
Civil Twilight 4:40 AM PDT 8:36 PM PDT
Nautical Twilight 4:00 AM PDT 9:17 PM PDT
Astronomical Twilight 3:14 AM PDT 10:03 PM PDT
Moon 3:28 PM PDT (6/8) 2:06 AM PDT (6/8)
Length of Visible Light 15h 55m
Length of Day
14h 51m
Waxing Gibbous, 78% of the Moon is Illuminated
Jun 8
Waxing Gibbous
Jun 12
Full
Jun 19
Last Quarter
Jun 27
New
Jul 5
First Quarter

Hourly Weather History & Observations

Time (PDT) Temp. Windchill Dew Point Humidity Pressure Visibility Wind Dir Wind Speed Gust Speed Precip Events Conditions
12:53 AM 62.1 °F - 26.1 °F 25% 29.78 in 10.0 mi NNE 16.1 mph 24.2 mph N/A   Clear
1:53 AM 54.0 °F - 26.1 °F 34% 29.79 in 10.0 mi WSW 10.4 mph - N/A   Clear
2:53 AM 57.0 °F - 27.0 °F 32% 29.81 in 10.0 mi NNW 9.2 mph - N/A   Clear
3:53 AM 53.1 °F - 26.1 °F 35% 29.84 in 10.0 mi NNW 6.9 mph - N/A   Clear
4:53 AM 44.1 °F - 25.0 °F 47% 29.89 in 10.0 mi Calm Calm - N/A   Clear
5:53 AM 41.0 °F 35.2 °F 26.1 °F 55% 29.92 in 10.0 mi South 9.2 mph - N/A   Clear
6:53 AM 53.1 °F - 28.9 °F 40% 29.91 in 10.0 mi Calm Calm - N/A   Clear
7:53 AM 61.0 °F - 28.0 °F 29% 29.90 in 10.0 mi NNE 16.1 mph - N/A   Clear
8:53 AM 64.9 °F - 28.0 °F 25% 29.90 in 10.0 mi NNE 16.1 mph - N/A   Clear
9:53 AM 68.0 °F - 27.0 °F 21% 29.90 in 10.0 mi NNW 8.1 mph 17.3 mph N/A   Clear
10:53 AM 71.1 °F - 21.9 °F 16% 29.90 in 10.0 mi NNE 12.7 mph 23.0 mph N/A   Clear
11:53 AM 73.0 °F - 19.9 °F 14% 29.91 in 10.0 mi NE 9.2 mph 27.6 mph N/A   Clear
12:53 PM 73.9 °F - 21.0 °F 14% 29.88 in 10.0 mi NNE 10.4 mph 21.9 mph N/A   Clear
1:53 PM 77.0 °F - 21.0 °F 12% 29.88 in 10.0 mi North 11.5 mph 19.6 mph N/A   Clear
2:53 PM 78.1 °F - 21.0 °F 12% 29.86 in 10.0 mi NE 15.0 mph 20.7 mph N/A   Clear
3:53 PM 79.0 °F - 19.0 °F 11% 29.86 in 10.0 mi North 16.1 mph 21.9 mph N/A   Clear
4:53 PM 79.0 °F - 19.0 °F 11% 29.88 in 10.0 mi NNE 13.8 mph 19.6 mph N/A   Clear
5:53 PM 77.0 °F - 18.0 °F 11% 29.89 in 10.0 mi NE 8.1 mph - N/A   Clear
6:53 PM 75.9 °F - 19.9 °F 12% 29.86 in 10.0 mi NNE 11.5 mph - N/A   Clear
7:53 PM 70.0 °F - 19.9 °F 15% 29.86 in 10.0 mi North 9.2 mph - N/A   Clear
8:53 PM 62.1 °F - 19.9 °F 20% 29.90 in 10.0 mi WNW 5.8 mph - N/A   Clear
9:53 PM 60.1 °F - 23.0 °F 24% 29.91 in 10.0 mi NNE 4.6 mph - N/A   Clear
10:53 PM 48.9 °F - 21.0 °F 33% 29.95 in 10.0 mi South 8.1 mph - N/A   Clear
11:53 PM 46.0 °F 41.4 °F 21.0 °F 37% 29.95 in 10.0 mi SSE 9.2 mph - N/A   Clear